Lapan A3
1 41603U 16040E 22006.80343723 .00000430 00000-0 22803-4 0 9991
2 41603 97.2300 50.7057 0013875 16.4706 103.4626 15.20229883307472
Pratham
1 41783U 16059A 22006.56993171 .00000106 00000-0 29513-4 0 9996
2 41783 97.9380 54.4159 0032657 327.1151 32.8020 14.63212464281955
TY-1
1 41844U 16066D 22006.84742047 .00004244 00000-0 16354-3 0 9992
2 41844 97.3952 20.0265 0015436 134.6425 348.0570 15.26777453286928
CAS-2T
1 41847U 16066G 22006.19940834 .00000158 00000-0 34548-4 0 9993
2 41847 98.5755 70.8898 0364271 335.1371 23.2638 14.38318017271023
EO-88
1 42017U 17008BX 22006.12113439 .00004199 00000-0 14710-3 0 9993
2 42017 97.2927 75.0215 0007242 104.5868 255.6176 15.29999846272228
CAS-4B
1 42759U 17034B 22006.85228019 .00001127 00000-0 80050-4 0 9995
2 42759 43.0153 142.5226 0008544 347.0217 147.7417 15.10693685251904
CAS-4A
1 42761U 17034D 22006.76696602 .00001238 00000-0 86416-4 0 9990
2 42761 43.0162 141.8972 0008939 348.9162 154.4690 15.10781695251899
NIUSat
1 42766U 17036B 22006.57447470 .00002127 00000-0 90983-4 0 9995
2 42766 97.2250 50.3038 0014798 172.7827 187.3627 15.23781332252136
Aalto 1
1 42775U 17036L 22006.36803462 .00001731 00000-0 75175-4 0 9995
2 42775 97.2213 50.2239 0013369 171.9942 188.1511 15.23529173252087
URSA MAIOR
1 42776U 17036M 22006.59284461 .00001904 00000-0 81556-4 0 9995
2 42776 97.2226 51.0343 0013173 170.1689 189.9809 15.23892838252146
Max Valier Sat
1 42778U 17036P 22006.57949128 .00001905 00000-0 79932-4 0 9999
2 42778 97.2295 53.3313 0011780 170.9814 189.1638 15.24611484252224
Pegasus
1 42784U 17036V 22006.59006834 .00002511 00000-0 10119-3 0 9991
2 42784 97.2241 53.9560 0011168 172.6469 187.4936 15.25686906252311
NUDATSat
1 42787U 17036Y 22006.88704852 .00006477 00000-0 23649-3 0 9998
2 42787 97.2283 57.4183 0010599 161.7606 198.3999 15.28398099252382
SUCHAI 1
1 42788U 17036Z 22006.40264180 .00003142 00000-0 12194-3 0 9991
2 42788 97.2249 55.0616 0010754 169.0240 191.1236 15.26767343252439
SKCUBE
1 42789U 17036AA 22006.60468034 .00002878 00000-0 11321-3 0 9994
2 42789 97.2245 54.8594 0010721 169.0182 191.1293 15.26380290252364
VZLUSAT 1
1 42790U 17036AB 22006.55882767 .00004029 00000-0 14848-3 0 9990
2 42790 97.2279 57.0831 0010056 162.6379 197.5207 15.28331004252489
VENTA 1
1 42791U 17036AC 22006.40274839 .00002615 00000-0 10373-3 0 9998
2 42791 97.2244 54.6399 0010289 170.1664 189.9778 15.26186711252325
Robusta 1B
1 42792U 17036AD 22006.60324850 .00003049 00000-0 11869-3 0 9993
2 42792 97.2246 55.3251 0010302 168.8605 191.2865 15.26691146252403
D-SAT
1 42794U 17036AF 22006.47395816 .00000566 00000-0 53903-4 0 9997
2 42794 97.4539 20.5139 0123182 267.2373 91.4743 14.91898612247327
TechnoSat
1 42829U 17042E 22006.61681569 .00000439 00000-0 49061-4 0 9991
2 42829 97.4397 230.0230 0013902 182.3801 177.7354 14.91463094243963
QIKCOM-1
1 42983U 98067NF 22006.63902511 .00016989 00000-0 12400-3 0 9996
2 42983 51.6349 302.9599 0003537 61.0250 299.1102 15.73391045239315
AO-91
1 43017U 17073E 22006.45958405 .00001748 00000-0 13816-3 0 9995
2 43017 97.6919 267.2465 0253058 358.0180 2.0006 14.80131478223145
PICSAT
1 43132U 18004X 22006.20670805 .00003395 00000-0 12925-3 0 9996
2 43132 97.3908 83.8842 0007876 203.7208 156.3669 15.27398984221618
AO-92
1 43137U 18004AC 22006.44495210 .00002548 00000-0 10050-3 0 9998
2 43137 97.3879 83.3125 0007604 205.3651 154.7215 15.26460647221612
TianYi 2
1 43155U 18008A 22006.86117969 .00002389 00000-0 13745-3 0 9997
2 43155 97.3779 70.5132 0016601 351.1901 123.8486 15.13279527218829
Zhou Enlai
1 43156U 18008B 22006.84810355 .00003001 00000-0 17355-3 0 9998
2 43156 97.3832 70.3467 0013843 352.6726 136.6217 15.12939834218754
TianYi 6
1 43158U 18008D 22006.73929429 .00001915 00000-0 11426-3 0 9996
2 43158 97.3760 68.5086 0013219 352.2705 124.4580 15.12236103218658
S-Net D
1 43186U 18014G 22006.39930980 .00000379 00000-0 37624-4 0 9992
2 43186 97.6682 275.2082 0011942 118.6729 241.5695 14.97309280214663
S-Net B
1 43187U 18014H 22006.66662507 .00000381 00000-0 37796-4 0 9993
2 43187 97.6678 275.4291 0011960 117.8365 242.4071 14.97308722214703
S-Net A
1 43188U 18014J 22006.73365178 .00000385 00000-0 38107-4 0 9997
2 43188 97.6682 275.5493 0011969 117.7314 242.5124 14.97307857214715
S-Net C
1 43189U 18014K 22006.73418810 .00000403 00000-0 39685-4 0 9993
2 43189 97.6677 275.4860 0011982 117.6643 242.5796 14.97306973213268
FMN 1
1 43192U 18015A 22006.79906848 .00009113 00000-0 30811-3 0 9995
2 43192 97.5129 148.8667 0012236 242.1880 250.0047 15.30796955218664
Shaonian Xing
1 43199U 18015H 22006.80590603 .00005933 00000-0 21018-3 0 9997
2 43199 97.4904 145.1774 0013599 253.1356 244.3377 15.29419717218706
SurfSat
1 43614U 18070B 22006.53430842 .00006926 00000-0 14502-3 0 9991
2 43614 93.0206 30.7079 0010170 300.9166 59.1091 15.45403226185999
CP-7 DAVE
1 43615U 18070C 22006.53286017 .00006784 00000-0 14415-3 0 9990
2 43615 93.0209 30.6299 0010418 301.3043 58.7194 15.44968109185972
ELFIN-B
1 43616U 18070D 22006.57443330 .00010095 00000-0 17991-3 0 9990
2 43616 93.0160 31.1872 0009175 293.1370 66.8923 15.50047998186175
ELFIN-A
1 43617U 18070E 22006.58135508 .00010092 00000-0 17480-3 0 9997
2 43617 93.0213 32.2596 0008392 289.0974 70.9378 15.50865876186201
CubeBel-1
1 43666U 18083E 22006.82666057 .00003500 00000-0 16316-3 0 9993
2 43666 97.4383 37.5519 0014285 172.0347 291.7790 15.20450543176902
Changshagaoxin
1 43669U 18083H 22006.78878016 .00003142 00000-0 15255-3 0 9994
2 43669 97.4304 33.9758 0010562 166.3903 309.5425 15.19151613176740
Ten-Koh
1 43677U 18084G 22006.59329414 .00000265 00000-0 32922-4 0 9990
2 43677 97.9425 135.4829 0017359 85.8253 274.4948 14.90653585173569
PO-101
1 43678U 18084H 22006.82264075 .00000072 00000-0 12893-4 0 9999
2 43678 97.9475 138.4922 0011341 97.4273 262.8222 14.91872995173754
IRVINE 01
1 43693U 18088D 22006.59380122 .00005489 00000-0 19485-3 0 9996
2 43693 85.0317 59.6565 0014687 2.8923 357.2405 15.28689949175434
QO-100
1 43700U 18090A 22006.54221704 .00000141 00000-0 00000-0 0 9993
2 43700 0.0156 55.6691 0001872 261.7548 9.6376 1.00272464 11404
Reaktor Hello World
1 43743U 18096AA 22006.46853335 .00003029 00000-0 10571-3 0 9993
2 43743 97.3694 87.4072 0014907 277.1023 82.8522 15.30283991173168
MinXSS-2
1 43758U 18099A 22006.74152189 .00001319 00000-0 12103-3 0 9995
2 43758 97.6461 78.5135 0017020 88.8894 271.4278 14.96442200168914
AO-95
1 43770U 18099N 22006.72432072 .00000820 00000-0 78677-4 0 9994
2 43770 97.6432 77.1999 0015863 97.8313 262.4709 14.95650724168839
RANGE-B
1 43772U 18099Q 22006.50558306 .00000430 00000-0 43311-4 0 9995
2 43772 97.6533 78.3237 0015324 85.9213 274.3759 14.96056208168813
RANGE-A
1 43773U 18099R 22006.41480388 .00000591 00000-0 58425-4 0 9990
2 43773 97.6366 76.0011 0015044 86.6730 273.6212 14.95459899168777
MOVE-II
1 43780U 18099Y 22006.72628699 .00001266 00000-0 11643-3 0 9991
2 43780 97.6458 78.0069 0014649 94.6010 265.6885 14.96454093168861
SNUSat 2
1 43782U 18099AA 22006.72559886 .00000773 00000-0 74158-4 0 9997
2 43782 97.6431 77.6126 0014055 85.1040 275.1785 14.95867972168859
SnugLite
1 43784U 18099AC 22006.71547385 .00000529 00000-0 52063-4 0 9999
2 43784 97.6394 77.2778 0016269 91.5014 268.8072 14.96018196168876
ITASat 1
1 43786U 18099AE 22006.40541970 .00001070 00000-0 10050-3 0 9992
2 43786 97.6458 77.7070 0016659 92.1470 268.1659 14.95902861168824
